« Back
NWS Peachtree City, Ga » Text Product » GA Regional Weather Roundup


Printer-friendly Version
Current Version              Previous Versions:   1  2  3  4  5  6  7  8  9  

Regional Weather Roundup

920
ASUS42 KFFC 272103
RWRGA
WEATHER ROUNDUP FOR GEORGIA
NATIONAL WEATHER SERVICE PEACHTREE CITY GA
400 PM EST TUE JAN 27 2015

NOTE: "FAIR" INDICATES FEW OR NO CLOUDS BELOW 12,000 FEET WITH NO
SIGNIFICANT WEATHER AND/OR OBSTRUCTIONS TO VISIBILITY.

* = USE WITH CAUTION. THE STATIONS MARKED WITH AN ASTERISK MAY NOT
REPORT WEATHER SUCH AS PRECIPITATION, FOG, OR THUNDER AND ARE NOT
QUALITY CONTROLLED BY NWS.

THE REMARK "TC" DENOTES TEMPERATURE READING IN DEGREES CELSIUS.

GAZ001>058-272200-
NORTH GEORGIA

CITY           SKY/WX    TMP DP  RH WIND       PRES   REMARKS
ATLANTA        MOSUNNY   48  28  46 N15       29.98R
ATHENS         MOSUNNY   48  26  42 NW15G24   29.93R
CHAMBLEE       MOSUNNY   45  30  55 N15G23    29.98R
PEACHTREE CITY MOSUNNY   50  27  40 N15G23    29.99R
ROME           MOSUNNY   49  32  52 N12       30.01R
WEST ATLANTA   PTSUNNY   47  29  49 NW9       29.99R
GAINESVILLE    SUNNY     42  26  53 NW13G24   29.96R
CARTERSVILLE   MOSUNNY   48  30  49 N12       30.01R


CITY           SKY/WX    TMP DP  RH WIND       PRES   REMARKS
DALTON*        CLOUDY    39  32  75 CALM      30.03R
LAWRENCEVILLE* MOSUNNY   45  25  45 W12G18    29.95R
MARIETTA       MOSUNNY   47  30  52 N14G20    29.99R
KENNESAW*      MOSUNNY  N/A N/A N/A N12G17    30.00R
$$

GAZ059>098-102>109-272200-
CENTRAL GEORGIA

CITY           SKY/WX    TMP DP  RH WIND       PRES   REMARKS
AUGUSTA-BUSH   MOSUNNY   53  28  38 NW13      29.90R
AUGUSTA-DANIEL MOSUNNY   53  26  35 NW12G23   29.90R
COLUMBUS       SUNNY     57  27  31 N13G20    29.97R
MACON          SUNNY     53  28  38 N21G29    29.96R
ROBINS AFB     SUNNY     55  29  36 NW26G35   29.95R


CITY           SKY/WX    TMP DP  RH WIND       PRES   REMARKS
LAGRANGE*      SUNNY     57  33  39 NW17      29.98S
SYLVANIA*      CLOUDY    50  34  53 N13       29.91R
MILLEDGEVILLE* MOSUNNY   52  34  50 W13G18    29.94R
$$

GAZ099>101-110>166-272200-
SOUTH GEORGIA

CITY           SKY/WX    TMP DP  RH WIND       PRES   REMARKS
SAVANNAH       PTSUNNY   54  30  40 NW12      29.90R
VALDOSTA       MOSUNNY   60  37  42 VRB5      29.94R
ALMA           MOSUNNY   56  33  42 NW17G24   29.92R
ST SIMONS      PTSUNNY   56  35  45 W13G25    29.89R
FT STEWART     CLOUDY    53  30  41 NW13      29.90R
ALBANY         SUNNY     61  31  32 NW12G21   29.96S
HUNTER AFB     MOSUNNY   55  29  36 NW14G24   29.87R
MOODY AFB      SUNNY     59  35  39 NW18G24   29.93R
BRUNSWICK      PTSUNNY   55  34  44 W10G17    29.91R


CITY           SKY/WX    TMP DP  RH WIND       PRES   REMARKS
BAINBRIDGE*    SUNNY     64  36  34 NW13G18   29.96R
MOULTRIE*      SUNNY     59  36  41 NW12G17   29.95R
VIDALIA*       CLOUDY    52  34  50 NW10G21   29.93R
WAYCROSS*      SUNNY     60  37  43 NW16      29.92R
DOUGLAS*       PTSUNNY   57  32  38 NW12G21   29.94R
$$



USA.gov is the U.S. government's official web portal to all federal, state and local government web resources and services.